{"data":{"norad_id":59845,"epoch":"2026-05-24T20:07:46.401600Z","epoch_age_seconds":95807,"freshness":"FRESH","line1":"1 59845U 24097L   26144.83873150 -.00001221  00000+0 -34858-4 0  9994","line2":"2 59845  43.0007 197.3106 0001562 272.0413  88.0260 15.27578203113646","mean_motion":15.27578203,"eccentricity":0.0001562,"inclination_deg":43.0007,"raan_deg":197.3106,"arg_perigee_deg":272.0413,"mean_anomaly_deg":88.026,"bstar":-3.4858e-5,"rev_number":11364,"period_min":94.266859606401,"perigee_km":481.9827588007,"apogee_km":484.12619501809,"semimajor_km":6861.1914769094,"source":"CELESTRAK","updated_at":"2026-05-25T13:38:19.087166Z"}}